STARLINK-5179, 54102

Orbit data source: Space-Track

STARLINK-5179, 54102 is a payload satellite owned by SpaceX/Seattle (US) in LEO that was launched on Thu, 20 Oct 2022 UTC via an FALCON 9 launch vehicle from the Air Force Eastern Test Range (AFETR). Payload-class satellites include a variety of spacecraft equipped with specific instruments for various scientific and technological missions. These include communications satellites like Starlink; space stations such as the ISS; scientific satellites like the Hubble; Earth observation satellites from companies like Planet Labs, Umbra, and HawkEye 360; GPS; miniature CubeSats for education and research; and military/defense satellites.

Loading next visibility...
Identifier
54102, 2022-136BD
Orbit
LEO
Country
Flag of USUS
Related business
Manufacturer
SpaceX/Seattle
Mission
Operational Commercial Communications
Bus & Motor
STARLINK, Unknown motor
Mass
305 kg wet, ~290 kg dry
Launch date (UTC)
2022-10-20 (3 years ago)
Launch vehicle
FALCON 9
Launch site
Air Force Eastern Test Range (AFETR)
Object type
Payload
Rocket body
Debris
Shape & HBR
Box + 1 Pan, 10.1 m
Radar Cross Section
13.562 m², Large (>1 m²)

Expand to show TLE details & history
Last TLE update: 1 day ago

TLE from 1 day ago
0 STARLINK-5179
1 54102U 22136BD  25302.99772155 -.00006745  00000-0 -40611-3 0  9992
2 54102  53.2149 200.8370 0001371  84.0769 276.0380 15.08840948167258
Epoch: 2025-10-29T23:56Z
TLE epoch observation values (Epoch: 2025-10-29T23:56:43.141Z)
Latitude
0.00001°
Longitude
163.09442°
Altitude
540.538 km
Speed
7.593 km/s
True Right ascension
13h 23m 20s
True Declination
0° 00' 00"
Sunlit
Object was in daylight at epoch
Visualization orbit readout
Latitude
Unknown
Longitude
Unknown
Altitude
Unknown
Speed
Unknown
Apparent Right ascension
Unknown
Apparent Declination
Unknown
Sunlit
N/A
Visualization observer readout
Local Sidereal Time
02:17:15
Azimuth
Unknown
Elevation
Unknown
Doppler factor
Unknown
Orbital elements
Apogee altitude
540.934 km
Perigee altitude
539.037 km
Semi-major axis
6,918.123 km
Eccentricity
0.00014
Inclination
53.2149°
RAAN
200.837°
Arg. of periapsis
84.0769°
True anomaly
276.02238°
Mean anomaly
276.038°
Eccentric anomaly
276.03019°
Mean motion
3.77191 °/min
Orbital period
95.44 mins
BSTAR
-0.00040611
Loading maneuver chart data...
Computing Atmospheric mass density...
Loading historical data...
Loading historical data...
Loading historical data...
Loading historical data...
Loading historical data...
Loading historical data...
Loading historical data...

Documentation

Showing up to 5 results
|